Вернуться в каталог

ONEWEB-0233

АктивенСвязьPO
NORAD 48795·PAYLOAD·🇬🇧 United Kingdom

Запущен May 28, 2021 с Vostochny Cosmodrome

Loading…

Ближайшие Пролёты (ближайшие 24 часа)

TLE

СвежийSource: CelesTrak SupGP

Эпоха: Sep 14, 2026, 16:44 UTC

1 48795C 21045AE  26257.69737685 -.00000970  00000+0 -25797-2 0  2574
2 48795  87.8982 241.3841 0002000  77.6093 315.4782 13.15549365    17

Отслеживайте ONEWEB-0233 в реальном времени с AllMySat

Download on the App Store